Flag for Portugal Weather past 2 weeks in Viseu, Portugal

Now
49 °F

Cool.


Feels Like: 49 °F
Forecast: 41 / 63 °F
Wind: 2 mph from West

Location: Viseu


UV Index: 5 (Moderate)

Visibility: N/A


Pressure: 29.66 "Hg

Humidity: 85%

Dew point: 44 °F

Location of ViseuLocation

Historic Weather in Viseu

°F

Viseu temperature yesterday

Maximum temperature yesterday: 61 °F (at 4:00 PM)
Minimum temperature yesterday: 44 °F (at 7:00 AM)
Average temperature yesterday: 51 °F

Past Weeks' High & Low Weather Summary

 TemperatureHumidityPressure
High78 °F (Apr 17, 5:00 PM)96% (Apr 7, 6:00 AM)30.19 "Hg (Apr 7, 6:00 AM)
Low44 °F (Apr 20, 7:00 AM)30% (Apr 8, 5:00 PM)29.58 "Hg (Apr 20, 4:00 PM)
Average60 °F69%29.97 "Hg
* Reported Apr 6 8:00 AM — Apr 21 8:00 AM, Viseu, Weather by CustomWeather, © 2014

Note: Actual official high and low records may vary slightly from our data, if they occured in-between our weather recording intervals... More about our weather records

Advertising

Historic Weather Conditions — Data for Previous 24 hours

 ConditionsComfort  
Time TempWeatherWind HumidityBarometerVisibility
8:00 AM
Apr 21
46 °FCool.2 mph93%29.66 "HgN/A
7:00 AM46 °FCool.2 mph93%29.65 "HgN/A
6:00 AM47 °FCool.2 mph93%29.63 "HgN/A
5:00 AM47 °FCool.1 mph94%29.63 "HgN/A
4:00 AM48 °FCool.2 mph92%29.63 "HgN/A
3:00 AM49 °FCool.1 mph86%29.62 "HgN/A
2:00 AM49 °FCool.1 mph85%29.63 "HgN/A
1:00 AM50 °FCool.3 mph85%29.63 "HgN/A
12:00 AM49 °FCool.3 mph84%29.64 "HgN/A
11:00 PM
Apr 20
50 °FCool.5 mph83%29.64 "HgN/A
10:00 PM50 °FCool.5 mph83%29.63 "HgN/A
9:00 PM51 °FCool.3 mph80%29.62 "HgN/A
8:00 PM53 °FCool.6 mph77%29.59 "HgN/A
7:00 PM55 °FCool.5 mph68%29.59 "HgN/A
6:00 PM56 °FCool.5 mph61%29.58 "HgN/A
5:00 PM58 °FRefreshingly cool.3 mph51%29.58 "HgN/A
4:00 PM61 °FRefreshingly cool.3 mph44%29.58 "HgN/A
3:00 PM60 °FRefreshingly cool.2 mph43%29.61 "HgN/A
2:00 PM59 °FRefreshingly cool.2 mph52%29.62 "HgN/A
1:00 PM59 °FRefreshingly cool.2 mph51%29.65 "HgN/A
12:00 PM53 °FCool.2 mph59%29.69 "HgN/A
11:00 AM53 °FCool.1 mph66%29.70 "HgN/A
10:00 AM50 °FCool.2 mph74%29.71 "HgN/A
Weather by CustomWeather, © 2014

See weather overview